Regional Weather Roundup
Issued by NWS

Home | Current Version | Previous Version | Text Only | Print | Product List | Glossary Off
Versions: 1 2 3 4 5 6 7 8 9 10 11 12 13 14 15 16 17 18 19 20 21 22 23 24 25 26 27 28 29 30 31 32 33 34 35 36 37 38 39 40 41 42 43 44 45 46 47 48 49 50

000
ASUS43 KMPX 032110
RWRMN
WEATHER ROUNDUP FOR MINNESOTA
NATIONAL WEATHER SERVICE TWIN CITIES/CHANHASSEN MN
400 PM CDT THU SEP 03 2015


NOTE: "FAIR" INDICATES FEW OR NO CLOUDS BELOW 12,000 FEET WITH NO
SIGNIFICANT WEATHER AND/OR OBSTRUCTIONS TO VISIBILITY. N/A MEANS
CURRENT SKY AND/OR WEATHER CONDITIONS ARE NOT AVAILABLE.

MNZ060>063-068>070-032200-
   Twin Cities Metro

CITY           SKY/WX    TMP DP  RH WIND       PRES   REMARKS
TWIN CITIES    MOSUNNY   83  72  69 E14       29.87F
ST PAUL        SUNNY     83  73  72 SE13      29.88F
CRYSTAL        SUNNY     86  72  62 SE9       29.86F HX  92
BLAINE         MOSUNNY   84  73  70 SE9       29.88F HX  91
LAKEVILLE      SUNNY     82  75  78 E9        29.87F
EDEN PRAIRIE   MOSUNNY   85  74  69 E13       29.86F HX  92
SOUTH ST PAUL  SUNNY     83  70  65 SE7       29.88S
LAKE ELMO      FAIR      82  72  69 E9        29.90S
$$
MNZ001>005-007-008-013>017-022>024-027-028-032200-
   Northwest Minnesota

CITY           SKY/WX    TMP DP  RH WIND       PRES   REMARKS
BEMIDJI        SUNNY     84  69  61 SE16G22   29.87S
HALLOCK        SUNNY     93  70  46 S20G25    29.70F HX  99
ROSEAU         SUNNY     88  72  58 SE15G22   29.79S HX  94
WARROAD        SUNNY     84  72  65 SE15G23   29.80F
THIEF RVR FALL SUNNY     90  70  51 S17G24    29.77S HX  95
CROOKSTON      SUNNY     90  72  55 S20G28    29.74F HX  96
FOSSTON        SUNNY     90  66  45 SE12G21   29.81S HX  92
DETROIT LAKES  SUNNY     86  70  58 SE14      29.83F HX  90
MOORHEAD       SUNNY     91  72  52 SE20G26   29.76F HX  98
PARK RAPIDS    SUNNY     87  69  54 SE13      29.86F HX  91
MAHNOMEN       FAIR      86  71  59 S13       29.80F HX  92
$$
MNZ006-009>011-018-025>026-032200-
   North Central Minnesota

CITY           SKY/WX    TMP DP  RH WIND       PRES   REMARKS
BAUDETTE       SUNNY     85  64  49 SE15G23   29.84F
FLAG ISLAND    SUNNY     75  66  73 SE10      29.82S
INTL FALLS     SUNNY     83  64  52 SE13      29.90F
WASKISH        SUNNY     82  66  57 E13G20    29.87R
BIG FORK       SUNNY     82  64  54 SE8       29.92S
LONGVILLE      SUNNY     82  66  57 SE7       29.90S
GRAND RAPIDS     N/A     79  61  53 SE12      29.93S
CRANE LAKE     SUNNY     82  63  51 SE6       29.94F
ORR            SUNNY     82  57  42 SE12      29.91S
COOK           SUNNY     81  63  54 SE7       29.95S
WALKER         FAIR      82  69  65 SE10      29.88S
$$
MNZ012-019>021-037-032200-
   Northeast Minnesota

CITY           SKY/WX    TMP DP  RH WIND       PRES   REMARKS
DULUTH         SUNNY     72  64  76 E12       29.97F
ELY            SUNNY     81  57  44 SE12      29.97S
HIBBING        SUNNY     79  62  56 SE13G18   29.95F
EVELETH        SUNNY     77  59  53 SE9       29.97S
DULUTH HARBOR  FOG       61  57  88 NE14      29.98S VSB 3/4
TWO HARBORS    SUNNY     75  64  69 E14       29.96S
SILVER BAY     SUNNY     73  57  56 E6        29.97F
GRAND MARAIS     N/A     66  55  67 E3        29.99F
G MARAIS ARPRT SUNNY     73  46  38 E8        30.05S
$$
MNZ029>031-032-039>041-046>048-054>057-064-032200-
   West Central Minnesota

CITY           SKY/WX    TMP DP  RH WIND       PRES   REMARKS
FERGUS FALLS   SUNNY     88  72  58 SE13G20   29.79F HX  94
MORRIS         SUNNY    N/A N/A N/A SE14        N/A
ALEXANDRIA     SUNNY     85  73  67 SE13G23   29.86F HX  91
ELBOW LAKE     FAIR      86  74  68 SE14G21   29.81F HAZE    HX  93
WADENA         SUNNY     84  72  65 SE14      29.85F
GLENWOOD       SUNNY     88  73  62 SE12      29.86F HX  96
APPLETON       SUNNY     91  72  52 SE12      29.79F HX  98
BENSON         SUNNY     90  73  58 SE12G18   29.81F HX  98
ORTONVILLE     SUNNY     90  72  55 SE12G17   29.79F HX  96
MADISON        SUNNY     88  73  62 SE12      29.80S HX  96
WILLMAR        FAIR      88  77  70 E12       29.84F HX 100
$$
MNZ033>034-036-042>043-049>051-058-059-032200-
   Central Minnesota

CITY           SKY/WX    TMP DP  RH WIND       PRES   REMARKS
ST CLOUD       SUNNY     84  72  67 E9G18     29.87F
SAUK CENTRE    FAIR      84  74  71 E9        29.86F HX  91
PAYNESVILLE    SUNNY     86  72  63 E12       29.86F HX  92
AITKIN         SUNNY     84  68  58 SE9       29.90S
PINE RIVER     SUNNY     81  70  69 SE9G17    29.93S
BRAINERD       SUNNY     82  68  62 VRB7      29.89F
STAPLES        SUNNY     84  70  61 SE10      29.87S
LONG PRAIRIE   FAIR      82  72  69 E9        29.87F
LITTLE FALLS   SUNNY     82  68  61 SE10      29.88S
LITCHFIELD     SUNNY     88  77  70 E12       29.85F HX 100
BUFFALO        MOSUNNY   85  72  64 E7        29.87F HX  91
MAPLE LAKE     SUNNY     85  76  73 E8        29.87F HX  94
$$
MNZ037-044-045-052-053-032200-
   East Central Minnesota

CITY           SKY/WX    TMP DP  RH WIND       PRES   REMARKS
PRINCETON      MOSUNNY   86  73  66 E10       29.88F HX  93
MORA           MOSUNNY   81  66  61 E9        29.91F
CAMBRIDGE        N/A     84  70  61 E7        29.88S
RUSH CITY      SUNNY     83  68  61 E6        29.91S
MOOSE LAKE     SUNNY     77  66  69 E7        29.92S
HINCKLEY       FAIR      82  68  61 E8        29.92S
CLOQUET        SUNNY     70  63  78 E8        29.97S
MCGREGOR       SUNNY     79  64  61 E8        29.93S
$$
MNZ071>073-080-081-089-090-097-098-032200-
   Southwest Minnesota

CITY           SKY/WX    TMP DP  RH WIND       PRES   REMARKS
MONTEVIDEO     SUNNY     91  75  59 S9        29.82F HX 102
GRANITE FALLS  SUNNY     88  73  61 SE13      29.82F HX  96
CANBY          SUNNY     90  72  56 SE14      29.80F HX  97
MARSHALL       SUNNY     90  72  55 SE14G20   29.82F HX  96
REDWOOD FALLS  SUNNY     89  74  60 SE10      29.81F HX  98
OLIVIA         SUNNY     88  72  58 SE13      29.83F HX  94
PIPESTONE      SUNNY     88  70  55 S12       29.83F HX  92
WINDOM         SUNNY     90  72  55 SE12      29.84S HX  96
WORTHINGTON    SUNNY     86  72  62 SE12G17   29.83F HX  92
JACKSON        SUNNY     88  73  62 SE12      29.85F HX  96
TRACY          SUNNY     89  75  63 SE10      29.83S HX  99
SLAYTON        SUNNY     87  73  62 SE12      29.85S HX  94
$$
MNZ065>067-074>077-082>085-091>093-032200-
   South Central Minnesota

CITY           SKY/WX    TMP DP  RH WIND       PRES   REMARKS
MANKATO        SUNNY     88  75  66 SE10      29.85S HX  97
NEW ULM        SUNNY     88  73  62 SE10      29.83F HX  96
ST JAMES       SUNNY     90  75  62 E9        29.84S HX 100
FAIRMONT       SUNNY     88  64  45 SE12      29.83F
GLENCOE        MOSUNNY   89  78  68 E12       29.85S HX 102
FARIBAULT      MOSUNNY   88  75  66 E8        29.87F HX  97
OWATONNA       SUNNY     88  73  62 E8        29.87F HX  96
WASECA         SUNNY     86  72  62 SE8       29.88S HX  92
ALBERT LEA     SUNNY     88  73  62 SE8       29.87S HX  96
$$
MNZ078>079-086>088-094>096-032200-
   Southeast Minnesota

CITY           SKY/WX    TMP DP  RH WIND       PRES   REMARKS
ROCHESTER      MOSUNNY   88  75  65 E10       29.90F HX  97
RED WING       SUNNY     84  72  65 SE9       29.87F VSB 1
STANTON        SUNNY     85  74  69 E7        29.86F HX  93
DODGE CENTER   MOSUNNY   88  73  62 E6        29.89F HX  96
WINONA         MOSUNNY   86  72  62 E3        29.88F HX  92
AUSTIN         SUNNY     88  73  62 S6        29.88S HX  96
PRESTON        SUNNY     87  72  60 S8        29.90F HX  93
$$
ABBREVIATIONS USED IN REMARKS
   TC - TEMPERATURES IN CELSIUS
  WCI - WIND CHILL INDEX
   HX - HEAT INDEX
  VSB - VISIBILITY
$$


USA.gov is the U.S. government's official web portal to all federal, state and local government web resources and services.